View from above orbital plane
|
View from above satellite
|
Ground track
|
The orbit data is extracted from the following two-line orbital elements,
1 21667U 91059B 21058.83402321 -.00000065 00000-0 -84111-4 0 9997
2 21667 82.9023 82.5684 0022262 86.4964 86.0800 13.75111299481185
Epoch (UTC): | 27 February 2021 20:00:59 |
Eccentricity: | 0.0022262 |
inclination: | 82.9023° |
perigee height: | 965 km |
apogee height: | 997 km |
right ascension of ascending node: | 82.5684° |
argument of perigee: | 86.4964° |
revolutions per day: | 13.75111299 |
mean anomaly at epoch: | 86.0800° |
orbit number at epoch: | 48118 |
The dashed part of the orbit path shows where the satellite is in the earth's shadow,
|
|